Regional Weather Roundup
Issued by NWS

Home | Current Version | Previous Version | Text Only | Print | Product List | Glossary On
Versions: 1 2 3 4 5 6 7 8 9 10 11 12 13 14 15 16 17 18 19 20 21 22 23 24 25 26 27 28 29 30 31 32 33 34 35 36 37 38 39 40 41 42 43 44 45 46 47 48 49 50
000
ASCA42 TJSJ 231610
RWRPR
PUERTO RICO/U.S. VIRGIN ISLANDS HOURLY WEATHER ROUNDUP
NATIONAL WEATHER SERVICE SAN JUAN PR
1200 PM AST TUE JAN 23 2018

PRZ001>002-007>008-010-231700-
PUERTO RICO

CITY           SKY/WX    TMP DP  RH WIND       PRES   REMARKS
SAN JUAN LMM   MOSUNNY   86  73  66 NE20G26   30.02F HX  93
AGUADILLA      MOSUNNY   84  70  61 E14G20    30.04F
$$

VIZ001>002-231700-
U.S. VIRGIN ISLANDS

CITY           SKY/WX    TMP DP  RH WIND       PRES   REMARKS
CHARLOTTE AMA  LGT RAIN  79  75  89 E12       30.02F FOG
CHRISTIANSTED  MOSUNNY   82  73  74 E15       30.02F
$$

HOURLY WEATHER ROUNDUP FOR THE NEWS MEDIA

CITY           SKY/WX    TMP DP  RH WIND       PRES   REMARKS
ORLANDO        PTSUNNY   75  68  78 SW13      30.07S
NEW YORK       CLOUDY    52  52 100 S30G37    29.65F
NEWARK         CLOUDY    60  57  89 S10       29.62F
CHICAGO        CLOUDY    31  26  82 NW15      29.78R WCI  20
HARTFORD       LGT RAIN  50  49  96 S14       29.77F
BOSTON         RAIN      34  34 100 N5        29.77F VSB 1/4 WCI  30
DALLAS         MOSUNNY   45  20  36 NW7       30.31R
PHILADELPHIA   PTSUNNY   58  56  93 S8        29.61
LOS ANGELES    MOSUNNY   54  28  36 NE5       30.15R
WASHINGTON DC  PTSUNNY   59  55  87 N5        29.65F


USA.gov is the U.S. government's official web portal to all federal, state and local government web resources and services.